TimeMDT,TemperatureF,Dew PointF,Humidity,Sea Level PressureIn,VisibilityMPH,Wind Direction,Wind SpeedMPH,Gust SpeedMPH,PrecipitationIn,Events,Conditions,WindDirDegrees,DateUTC
12:53 AM,45.0,37.0,74,29.73,10.0,West,15.0,-,N/A,,Clear,260,2013-04-06 06:53:00
1:53 AM,45.0,37.9,76,29.74,10.0,West,16.1,-,N/A,,Clear,260,2013-04-06 07:53:00
2:53 AM,45.0,36.0,71,29.76,10.0,WNW,21.9,-,N/A,,Mostly Cloudy,290,2013-04-06 08:53:00
3:53 AM,45.0,37.9,76,29.76,10.0,WNW,6.9,-,0.00,Rain,Light Rain,290,2013-04-06 09:53:00
4:53 AM,44.1,36.0,73,29.78,10.0,West,6.9,-,0.00,,Mostly Cloudy,260,2013-04-06 10:53:00
5:53 AM,39.9,34.0,79,29.78,10.0,West,9.2,-,N/A,,Partly Cloudy,260,2013-04-06 11:53:00
6:53 AM,43.0,34.0,71,29.81,10.0,WNW,12.7,-,N/A,,Clear,300,2013-04-06 12:53:00
7:53 AM,48.0,35.1,61,29.83,10.0,West,10.4,-,N/A,,Clear,280,2013-04-06 13:53:00
8:53 AM,54.0,35.1,49,29.83,10.0,WNW,21.9,25.3,N/A,,Clear,290,2013-04-06 14:53:00
9:53 AM,57.9,33.1,39,29.82,10.0,WNW,13.8,24.2,N/A,,Clear,300,2013-04-06 15:53:00
10:53 AM,61.0,30.9,32,29.82,10.0,NNW,9.2,20.7,N/A,,Clear,340,2013-04-06 16:53:00
11:53 AM,63.0,28.9,28,29.82,10.0,WNW,13.8,23.0,N/A,,Clear,300,2013-04-06 17:53:00
12:53 PM,64.9,28.0,25,29.82,10.0,NW,16.1,31.1,N/A,,Clear,310,2013-04-06 18:53:00
1:53 PM,63.0,27.0,26,29.81,10.0,WNW,20.7,27.6,N/A,,Clear,300,2013-04-06 19:53:00
2:53 PM,63.0,28.0,27,29.80,10.0,WNW,12.7,23.0,N/A,,Clear,300,2013-04-06 20:53:00
3:53 PM,63.0,28.0,27,29.79,10.0,WNW,11.5,-,N/A,,Clear,290,2013-04-06 21:53:00
4:53 PM,63.0,28.0,27,29.78,10.0,NW,8.1,-,N/A,,Clear,310,2013-04-06 22:53:00
5:53 PM,63.0,28.0,27,29.78,10.0,Calm,Calm,-,N/A,,Clear,0,2013-04-06 23:53:00
6:53 PM,59.0,32.0,36,29.78,10.0,ENE,5.8,-,N/A,,Clear,70,2013-04-07 00:53:00
7:53 PM,48.9,30.9,50,29.80,10.0,SE,8.1,-,N/A,,Clear,140,2013-04-07 01:53:00
8:53 PM,46.9,30.0,52,29.80,10.0,SE,4.6,-,N/A,,Scattered Clouds,140,2013-04-07 02:53:00
9:53 PM,41.0,28.9,62,29.82,10.0,NNE,4.6,-,N/A,,Mostly Cloudy,20,2013-04-07 03:53:00
10:53 PM,41.0,30.0,65,29.81,10.0,Calm,Calm,-,N/A,,Clear,0,2013-04-07 04:53:00
11:53 PM,37.0,27.0,67,29.80,10.0,West,3.5,-,N/A,,Clear,280,2013-04-07 05:53:00